Regional Weather Roundup
Issued by NWS Upton, NY

Current Version | Previous Version | Text Only | Print | Product List | Glossary On
Versions: 1 2 3 4 5 6 7 8 9 10 11 12 13 14 15 16 17 18 19 20 21 22 23 24 25 26 27 28 29 30 31 32 33 34 35 36 37 38 39 40 41 42 43 44 45 46 47 48 49 50
000
ASUS41 KOKX 250705
RWROKX
REGIONAL WEATHER ROUNDUP
NATIONAL WEATHER SERVICE NEW YORK NY
300 AM EDT FRI JUL 25 2014

NOTE: "FAIR" INDICATES FEW OR NO CLOUDS BELOW 12,000 FEET WITH NO
SIGNIFICANT WEATHER AND/OR OBSTRUCTIONS TO VISIBILITY.

NYZ071-072-176-178-NJZ106-104-250800-
NEW YORK CITY METRO AREA


CITY           SKY/WX    TMP DP  RH WIND       PRES   REMARKS
CENTRAL PARK   CLOUDY    69  53  56 VRB3      29.97R
LAGUARDIA APRT MOCLDY    70  55  59 N12       29.94R
KENNEDY INTL   MOCLDY    70  54  56 N12       29.94R
NEWARK/LIBERTY MOCLDY    69  53  56 N10       29.94R
BRNX BOT. GARD   N/A     68  55  64 SW3       29.95S
TETERBORO      PTCLDY    68  52  56 N6        29.94R
$$

NYZ177-179-078>081-250800-
LONG ISLAND NEW YORK

CITY           SKY/WX    TMP DP  RH WIND       PRES   REMARKS
FARMINGDALE    MOCLDY    67  56  67 N6        29.93R
ISLIP          MOCLDY    69  58  67 NW8       29.91R
SHIRLEY        MOCLDY    68  63  84 N7        29.92R
WESTHAMPTON    MOCLDY    65  63  93 N5        29.93R
MONTAUK POINT    N/A     68  66  93 N3        29.92S
$$

NYZ052-065-067-250800-
HUDSON VALLEY

CITY           SKY/WX    TMP DP  RH WIND       PRES   REMARKS
WHITE PLAINS   PTCLDY    65  52  62 N13       29.94R
NEWBURGH       CLEAR     59  55  88 CALM      29.98S
MONTGOMERY     CLEAR     55  53  93 CALM      29.98R
POUGHKEEPSIE   CLEAR     59  55  87 CALM      29.96R
ALBANY         CLEAR     59  51  75 W5        29.99R
$$

NJZ001-105-106-008-010-013-015-019>022-104-250800-
NEW JERSEY

CITY           SKY/WX    TMP DP  RH WIND       PRES   REMARKS
NEWARK/LIBERTY MOCLDY    69  53  56 N10       29.94R
TETERBORO      PTCLDY    68  52  56 N6        29.94R
CALDWELL       PTCLDY    63  52  67 CALM      29.96R
MORRISTOWN     CLEAR     61  55  82 CALM      29.96R
SOMERVILLE     PTCLDY    62  53  72 NW5       29.95R
LINDEN         PTSUNNY   69  54  58 N5        29.96S
SUSSEX         CLEAR     56  52  86 CALM      29.98R
ANDOVER          N/A     55  54  96 CALM      29.99R
TRENTON        PTCLDY    64  52  64 N8        29.95S
MILLVILLE      PTCLDY    65  56  72 NW6       29.95R
ATLANTIC CITY  MOCLDY    63  56  78 MISG      29.94R
WRIGHTSTOWN    PTCLDY    65  53  65 N5        29.93R
TOMS RIVER     MOCLDY    64  55  72 N3        29.94R
BELMAR         MOCLDY    64  54  68 NW5       29.94R
$$

PAZ047>061-062-071-250800-
EASTERN PENNSYLVANIA

CITY           SKY/WX    TMP DP  RH WIND       PRES   REMARKS
PHILADELPHIA   MOCLDY    67  52  58 N7        29.97R
ALLENTOWN      CLEAR     60  51  72 W3        29.99R
SCRANTON       CLEAR     52  48  86 CALM      30.03R
$$

CTZ002-004>006-009-010-012-RIZ004-006-007-MAZ004-011-015-250800-
SOUTHERN NEW ENGLAND
 IN CT

CITY           SKY/WX    TMP DP  RH WIND       PRES   REMARKS
BRADLEY INTL   PTCLDY    61  55  81 N5        29.94R
HARTFORD       PTCLDY    64  55  72 N7        29.94R
DANBURY        PTCLDY    60  52  74 SW3       29.97R
WTRBRY/OXFORD  PTCLDY    59  52  77 N7        29.97S
BRIDGEPORT     MOCLDY    68  56  65 N7        29.93R
MERIDEN        PTCLDY    64  56  75 NW6       29.94R
NEW HAVEN      MOCLDY    67  57  70 N6        29.93R
CHESTER        FAIR      63  57  82 N5        29.94R
GROTON         MOCLDY    64  63  96 CALM      29.90S
WILLIMANTIC    MOCLDY    61  57  87 N5        29.94R

 IN RI

CITY           SKY/WX    TMP DP  RH WIND       PRES   REMARKS
PROVIDENCE     MOCLDY    68  61  78 NW7       29.92S
BLOCK ISLAND   CLOUDY    66  63  88 N3        29.91R
WESTERLY       CLOUDY    68  64  87 CALM      29.92R

 IN MA

CITY           SKY/WX    TMP DP  RH WIND       PRES   REMARKS
BOSTON         PTCLDY    66  53  63 NW9       29.91S
WORCESTER      PTCLDY    62  49  62 NW7       29.95S
WESTFIELD      CLEAR     59  55  87 N3        29.95S
PROVINCETOWN   CLOUDY    64  63  94 W6        29.90S
NANTUCKET      PTCLDY    63  60  90 N6        29.88R
$$

ANZ330-335-338-340-345-350-353-355-250800-
COASTAL MARINE OBSERVATIONS


STATION/POSITION TIME  SKY/WX   TEMP    WIND        PRES    VSBY  WAVE
                                AIR SEA DIR/SP/G                  HT/PER
                 (UTC)          (F)     (DEG/KT/KT) (MB)    (MI)  (FT/S)
NY HARB ENTRANCE NOT AVBL
4S FIRE IS       NOT AVBL
23SW MTP         0700            69 71              1012.1          2/ 9
HUDSON CANYON    0700            73 74  320/ 12/ 14 1011.7          2/ 8
EXECUTION ROCKS  0700            70 72   10/ 14/ 17   N/A
WESTERN LI SOUND 0700            70      10/ 14/ 17   N/A           1/ 2
CENTRAL LI SOUND 0600            70 72  340/ 10/ 12   N/A           0
EASTERN LI SOUND 0600            67 67  330/  4/  6   N/A
ROBBINS REEF     0700            70     360/ 10/ 11   N/A
$$


>>>>>>>>>>>>>>>>>>>>>>>>>>>> KEY <<<<<<<<<<<<<<<<<<<<<<<<<<<
>                                                          <
>     SKY/WX - SKY CONDITION/PRESENT WEATHER               <
>     TMP    - TEMPERATURE IN FAHRENHEIT                   <
>     DP     - DEWPOINT IN FAHRENHEIT                      <
>     RH     - RELATIVE HUMIDITY IN PERCENT                <
>     WIND   - DIRECTION AND SPEED IN MPH                  <
>     PRES   - MEAN SEA LEVEL PRESSURE IN INCHES OF HG     <
>     WCI    - WIND CHILL INDEX                            <
>     VSB    - VISIBILITY IN MILES                         <
>     HX     - HEAT INDEX                                  <
>     TC     - TEMPERATURE IN CELSIUS                      <
>     VRB    - VARIABLE WIND DIRECTION                     <
>                                                          <
>>>>>>>>>>>>>>>>>>>>>>>>>>>> KEY <<<<<<<<<<<<<<<<<<<<<<<<<<<




USA.gov is the U.S. government's official web portal to all federal, state and local government web resources and services.